Torna al catalogo

FENGYUN 1C DEB

AttivoSSO
NORAD 30505·DEBRIS·🇨🇳 China

Lanciato May 10, 1999 da Taiyuan Satellite Launch Center

Loading…

Prossimi Passaggi (prossime 24 ore)

TLE

AggiornatoSource: Space-Track

Epoca: Sep 14, 2026, 12:17 UTC

1 30505U 99025AHT 26257.51202514  .00002114  00000-0  92851-3 0  9996
2 30505  98.9163 345.6544 0064240 169.7873 314.5879 14.23563699  8372

Traccia FENGYUN 1C DEB in tempo reale con AllMySat

Download on the App Store